King Salmon, AK

10:47 AM AKDT on March 27, 2017 (GMT -0800)
King Salmon

Weather History for PAKN - January, 2013

Change the Weather History Date:

Thursday, January 10, 2013

  Actual Average Record
Temperature  
Mean Temperature 32 °F 16 °F  
Max Temperature 39 °F 24 °F 44 °F (1979)
Min Temperature 25 °F 9 °F -40 °F (1987)
Degree Days  
Heating Degree Days 33 49  
Month to date heating degree days 363 486  
Since 1 July heating degree days 5833 5301  
Cooling Degree Days 0 0  
Month to date cooling degree days 0 0  
Year to date cooling degree days 0 0  
Moisture  
Dew Point 29 °F    
Average Humidity 0    
Maximum Humidity 0    
Minimum Humidity 0    
Precipitation  
Precipitation 0.07 in 0.03 in 0.72 in (2012)
Month to date precipitation 0.56 0.32  
Year to date precipitation 0.56 0.32  
Snow  
Snow 1.30 in 0.30 in - ()
Month to date snowfall 4.4 2.9  
Since 1 July snowfall 25.9 22.2  
Snow Depth T in    
Sea Level Pressure  
Sea Level Pressure 29.84 in    
Wind  
Wind Speed 7 mph (SSE)    
Max Wind Speed 18 mph    
Max Gust Speed 23 mph    
Visibility 9 miles    
Events Snow    
T = Trace of Precipitation, MM = Missing Value Source: NWS Daily Summary

Daily Weather History Graph

Daily Weather History Graph

Search for Another Location

Airport or City:

Trip Planner

Search our weather history database for the weather conditions in past years. The results will help you decide how hot, cold, wet, or windy it might be!

Date:

Astronomy

Jan. 10, 2013 Rise Set
Actual Time 10:10 AM AKST 4:59 PM AKST
Civil Twilight 9:19 AM AKST 5:49 PM AKST
Nautical Twilight 8:27 AM AKST 6:42 PM AKST
Astronomical Twilight 7:38 AM AKST 7:30 PM AKST
Moon 8:57 AM AKST (1/10) 4:24 PM AKST (1/10)
Length of Visible Light 8h 30m
Length of Day
6h 49m
Waning Crescent, 1% of the Moon is Illuminated
Jan 10
Waning Crescent
Jan 11
New
Jan 18
First Quarter
Jan 26
Full
Feb 3
Last Quarter

Hourly Weather History & Observations

Time (AKST) Temp. Windchill Dew Point Humidity Pressure Visibility Wind Dir Wind Speed Gust Speed Precip Events Conditions
12:33 AM 33.8 °F 27.0 °F 33.8 °F 100% 29.86 in 7.0 mi South 8.1 mph - 0.00 in Snow Light Snow
12:54 AM 34.0 °F 27.2 °F 33.1 °F 96% 29.87 in 7.0 mi South 8.1 mph - 0.00 in Snow Light Snow
1:29 AM 33.8 °F 28.6 °F 33.8 °F 100% 29.89 in 10.0 mi South 5.8 mph - 0.00 in   Overcast
1:54 AM 34.0 °F 28.0 °F 32.0 °F 92% 29.90 in 10.0 mi South 6.9 mph - 0.00 in   Overcast
2:20 AM 33.8 °F 28.6 °F 32.0 °F 93% 29.91 in 10.0 mi South 5.8 mph - N/A   Overcast
2:47 AM 33.8 °F 27.7 °F 32.0 °F 93% 29.92 in 10.0 mi South 6.9 mph - N/A   Overcast
2:54 AM 34.0 °F 28.0 °F 32.0 °F 92% 29.93 in 9.0 mi South 6.9 mph - N/A   Overcast
3:09 AM 33.8 °F 28.6 °F 32.0 °F 93% 29.92 in 2.0 mi South 5.8 mph - 0.01 in Snow Light Snow
3:12 AM 33.8 °F 27.7 °F 32.0 °F 93% 29.92 in 7.0 mi South 6.9 mph - 0.01 in   Overcast
3:17 AM 33.8 °F 30.8 °F 32.0 °F 93% 29.92 in 7.0 mi SSW 3.5 mph - 0.01 in   Overcast
3:21 AM 33.8 °F 30.8 °F 33.8 °F 100% 29.92 in 9.0 mi South 3.5 mph - 0.01 in   Overcast
3:54 AM 33.1 °F 26.9 °F 32.0 °F 96% 29.93 in 10.0 mi South 6.9 mph - 0.01 in   Overcast
4:54 AM 32.0 °F 26.4 °F 30.9 °F 96% 29.94 in 10.0 mi SSW 5.8 mph - N/A   Overcast
5:54 AM 30.0 °F 24.1 °F 28.9 °F 96% 29.95 in 10.0 mi SSE 5.8 mph - N/A   Overcast
6:52 AM 28.4 °F 22.2 °F 28.4 °F 100% 29.95 in 10.0 mi SE 5.8 mph - N/A   Scattered Clouds
6:54 AM 28.9 °F 21.9 °F 28.0 °F 96% 29.96 in 10.0 mi SE 6.9 mph - N/A   Mostly Cloudy
7:10 AM 28.4 °F 22.2 °F 26.6 °F 93% 29.96 in 10.0 mi SSE 5.8 mph - N/A   Scattered Clouds
7:54 AM 28.0 °F 21.7 °F 27.0 °F 96% 29.95 in 10.0 mi SE 5.8 mph - N/A   Clear
8:54 AM 26.1 °F 21.9 °F 25.0 °F 96% 29.96 in 10.0 mi East 3.5 mph - N/A   Scattered Clouds
9:54 AM 28.0 °F 20.0 °F 27.0 °F 96% 29.95 in 10.0 mi East 8.1 mph - N/A   Scattered Clouds
10:54 AM 30.0 °F 21.1 °F 28.0 °F 92% 29.93 in 10.0 mi East 10.4 mph 18.4 mph N/A   Mostly Cloudy
11:54 AM 30.9 °F 22.8 °F 28.9 °F 92% 29.92 in 10.0 mi ESE 9.2 mph - N/A   Overcast
12:54 PM 30.0 °F 23.2 °F 28.0 °F 92% 29.89 in 10.0 mi ENE 6.9 mph - N/A   Overcast
1:54 PM 30.9 °F 25.2 °F 28.0 °F 89% 29.87 in 10.0 mi East 5.8 mph - N/A   Overcast
2:54 PM 30.9 °F 23.5 °F 27.0 °F 85% 29.84 in 10.0 mi East 8.1 mph - N/A   Overcast
3:54 PM 30.0 °F 25.2 °F 27.0 °F 88% 29.81 in 10.0 mi NNE 4.6 mph - N/A   Overcast
4:54 PM 30.0 °F 25.2 °F 26.1 °F 85% 29.76 in 10.0 mi North 4.6 mph - N/A   Overcast
5:54 PM 28.0 °F 21.7 °F 24.1 °F 85% 29.73 in 10.0 mi NNW 5.8 mph - N/A   Overcast
6:54 PM 27.0 °F 21.6 °F 23.0 °F 85% 29.68 in 10.0 mi North 4.6 mph - N/A   Overcast
7:54 PM 30.0 °F 23.2 °F 25.0 °F 82% 29.63 in 10.0 mi NE 6.9 mph - N/A   Overcast
8:54 PM 37.9 °F 30.5 °F 28.0 °F 68% 29.59 in 10.0 mi East 11.5 mph - N/A   Overcast
9:54 PM 37.9 °F 35.5 °F 28.0 °F 68% 29.59 in 10.0 mi Variable 3.5 mph - N/A   Overcast
10:54 PM 36.0 °F 27.5 °F 28.9 °F 76% 29.65 in 9.0 mi SSW 12.7 mph 16.1 mph 0.00 in Snow Light Snow
11:09 PM 33.8 °F 26.4 °F 30.2 °F 87% 29.65 in 2.0 mi WSW 9.2 mph - 0.00 in Snow Light Snow
11:21 PM 33.8 °F 27.7 °F 32.0 °F 93% 29.66 in 1.5 mi SW 6.9 mph - 0.02 in Snow Light Snow
11:41 PM 32.0 °F 27.5 °F 32.0 °F 100% 29.66 in 1.2 mi West 4.6 mph - 0.05 in Snow Light Snow
11:54 PM 32.0 °F 28.7 °F 32.0 °F 100% 29.67 in 1.5 mi West 3.5 mph - 0.06 in Snow Light Snow